Location: Camaret
(48.2753°N, 4.5961°W)
Time: 01:22:57
(UTC+00:00)

H-2A R/B - Pass Details

Date: 29 October 2020
Orbit: 733 x 837 km, 98.2° (Epoch: 26 November)

Event Time Altitude Azimuth Distance (km) Brightness Sun altitude
Exits shadow 19:37:06 - 178° (S) 3,101 5.0 -26.0°
Reaches altitude 10° 19:38:50 10° 182° (S) 2,433 4.5 -26.3°
Maximum altitude 19:44:09 56° 260° (W) 992 2.7 -27.2°
Drops below altitude 10° 19:49:32 10° 339° (NNW) 2,461 5.0 -28.0°
Sets 19:51:58 0° 343° (NNW) 3,395 5.7 -28.4°
